Weather History for KDVN - February, 2014

Change the Weather History Date:

Tuesday, February 11, 2014

  Actual Average Record
Temperature  
Mean Temperature -6 °F 25 °F  
Max Temperature 11 °F 33 °F 64 °F (1999)
Min Temperature -23 °F 17 °F -23 °F (2014)
Degree Days  
Heating Degree Days 71 40  
Month to date heating degree days 680 457  
Since 1 July heating degree days 5089 4393  
Cooling Degree Days 0 0  
Month to date cooling degree days 0 0  
Year to date cooling degree days 0 0  
Moisture  
Dew Point -12 °F    
Average Humidity 82    
Maximum Humidity 100    
Minimum Humidity 63    
Precipitation  
Precipitation 0.00 in 0.06 in 0.60 in (1998)
Month to date precipitation 0.42 0.49  
Year to date precipitation 1.18 1.68  
Snow  
Snow 0.00 in - - ()
Month to date snowfall 8.3  
Since 1 July snowfall 36.6  
Snow Depth 6.00 in    
Sea Level Pressure  
Sea Level Pressure 30.51 in    
Wind  
Wind Speed 5 mph (SSW)    
Max Wind Speed 14 mph    
Max Gust Speed -    
Visibility 9 miles    
Events Snow    
T = Trace of Precipitation, MM = Missing Value Source: NWS Daily Summary

Daily Weather History Graph

Daily Weather History Graph

Search for Another Location

Airport or City:

Trip Planner

Search our weather history database for the weather conditions in past years. The results will help you decide how hot, cold, wet, or windy it might be!

Date:

Astronomy

Feb. 11, 2014 Rise Set
Actual Time 7:02 AM CST 5:30 PM CST
Civil Twilight 6:34 AM CST 5:59 PM CST
Nautical Twilight 6:01 AM CST 6:32 PM CST
Astronomical Twilight 5:29 AM CST 7:04 PM CST
Moon 2:50 PM CST (2/11) 4:41 AM CST (2/11)
Length of Visible Light 11h 25m
Length of Day
10h 28m
Waxing Gibbous, 91% of the Moon is Illuminated
Feb 11
Waxing Gibbous
Feb 14
Full
Feb 22
Last Quarter
Mar 1
New
Mar 8
First Quarter

Hourly Weather History & Observations

Time (CST) Temp. Windchill Dew Point Humidity Pressure Visibility Wind Dir Wind Speed Gust Speed Precip Events Conditions
12:52 AM -9.9 °F -24.9 °F -15.0 °F 78% 30.54 in 10.0 mi North 6.9 mph - N/A   Clear
1:52 AM -14.1 °F -26.3 °F -18.0 °F 82% 30.57 in 10.0 mi West 4.6 mph - N/A   Clear
2:52 AM -17.0 °F -31.7 °F -20.0 °F 86% 30.56 in 10.0 mi WSW 5.8 mph - N/A   Clear
3:52 AM -20.9 °F -34.3 °F -25.1 °F 81% 30.56 in 10.0 mi NW 4.6 mph - N/A   Clear
4:52 AM -23.1 °F - -27.0 °F 82% 30.57 in 10.0 mi Calm Calm - N/A   Clear
5:52 AM -20.0 °F -30.7 °F -24.0 °F 82% 30.58 in 10.0 mi West 3.5 mph - N/A   Clear
6:52 AM -20.0 °F - -24.0 °F 82% 30.58 in 9.0 mi Calm Calm - N/A   Clear
7:52 AM -15.0 °F - -20.0 °F 78% 30.60 in 6.0 mi Calm Calm - N/A   Haze
8:52 AM -14.1 °F - -15.0 °F 96% 30.61 in 7.0 mi Calm Calm - N/A   Clear
9:52 AM -8.0 °F - -13.0 °F 79% 30.60 in 7.0 mi Calm Calm - 0.00 in Snow Light Snow
10:52 AM -6.0 °F -14.7 °F -11.0 °F 79% 30.60 in 9.0 mi WNW 3.5 mph - 0.00 in   Clear
11:52 AM 1.0 °F - -6.0 °F 72% 30.56 in 7.0 mi Calm Calm - 0.00 in   Clear
12:52 PM 6.1 °F - -4.0 °F 63% 30.53 in 7.0 mi Calm Calm - 0.00 in Snow Light Snow
1:52 PM 9.0 °F 0.6 °F -2.0 °F 61% 30.50 in 8.0 mi NNW 4.6 mph - 0.00 in Snow Light Snow
2:52 PM 10.0 °F 0.4 °F -2.0 °F 58% 30.48 in 9.0 mi SW 5.8 mph - 0.00 in   Clear
3:52 PM 8.1 °F -3.2 °F -2.0 °F 64% 30.46 in 10.0 mi SSE 6.9 mph - N/A   Clear
4:52 PM 7.0 °F -5.7 °F -4.0 °F 61% 30.45 in 10.0 mi South 8.1 mph - N/A   Clear
5:52 PM 1.9 °F -10.6 °F -8.0 °F 63% 30.43 in 10.0 mi SSE 6.9 mph - N/A   Clear
6:52 PM -0.0 °F -11.6 °F -8.0 °F 69% 30.44 in 10.0 mi South 5.8 mph - N/A   Clear
7:52 PM -2.0 °F -16.6 °F -9.0 °F 72% 30.43 in 10.0 mi SSE 8.1 mph - N/A   Clear
8:52 PM -2.0 °F -16.6 °F -9.0 °F 72% 30.42 in 10.0 mi SSE 8.1 mph - N/A   Clear
9:52 PM 3.0 °F -14.1 °F -6.0 °F 66% 30.40 in 10.0 mi SSE 12.7 mph - N/A   Clear
10:52 PM 3.9 °F -12.2 °F -6.0 °F 64% 30.39 in 10.0 mi South 11.5 mph - N/A   Clear
11:52 PM 1.9 °F -16.2 °F -7.1 °F 66% 30.35 in 10.0 mi SSE 13.8 mph - N/A   Clear